Home   Weather   Provo   Past weeks

Flag for USA Past Weather in Provo, Utah, USA — Yesterday and Last 2 Weeks

Now
28 °F

Light snow. Ice fog.


Feels Like: 23 °F
Forecast: 19 / 31 °F
Wind: 5 mph from South

Location: Provo Municipal

Current Time: Feb 23, 2017 at 6:22:13 pm

Latest Report: Feb 23, 2017 at 6:01 pm


Visibility: 3 mi

Pressure: 29.88 "Hg (25.09 "Hg at 1386m altitude)

Humidity: 86%

Dew Point: 25 °F

Location of ProvoLocation

Past Weather in Provo — Graph

°F

Provo Temperature Yesterday

Maximum temperature yesterday: 39 °F (at 12:12 pm)
Minimum temperature yesterday: 27 °F (at 11:56 pm)
Average temperature yesterday: 33 °F

High & Low Weather Summary for the Past Weeks

 TemperatureHumidityPressure
High64 °F (Feb 9, 12:58 pm)100% (Feb 11, 10:00 am)30.47 "Hg (Feb 11, 10:00 am)
Low23 °F (Feb 13, 6:58 am)25% (Feb 16, 3:58 pm)29.54 "Hg (Feb 18, 1:56 pm)
Average41 °F73%30.02 "Hg
* Reported Feb 8 4:58 pm — Feb 23 4:58 pm, Provo, Weather by CustomWeather, © 2017

Note: Actual official high and low records may vary slightly from our data, if they occured in-between our weather recording intervals... More about our weather records

Advertising

Provo Weather History for the Previous 24 Hours

Scroll right to see more
 ConditionsComfort  
Time TempWeatherWind HumidityBarometerVisibility
4:58 pm
Thu, Feb 23
28 °FLight mixture of precip. More clouds than sun.3 mph86%29.86 "Hg5 mi
4:38 pm28 °FLight snow. Ice fog.No wind86%29.86 "Hg2 mi
4:02 pm30 °FHeavy snow. Mostly cloudy.No wind80%29.85 "Hg0 mi
3:44 pm32 °FLight snow. Cloudy.3 mph80%29.85 "Hg1 mi
3:05 pm28 °FLight snow. Ice fog.3 mph86%29.84 "Hg3 mi
2:58 pm30 °FLight snow. Ice fog.7 mph86%29.83 "Hg1 mi
2:39 pm30 °FLight snow. Ice fog.7 mph86%29.83 "Hg2 mi
2:12 pm30 °FLight snow. Ice fog.3 mph86%29.83 "Hg1 mi
1:58 pm30 °FLight snow. Ice fog.5 mph86%29.83 "Hg1 mi
1:30 pm30 °FLight snow. More clouds than sun.3 mph86%29.83 "Hg1 mi
1:21 pm30 °FLight snow. Ice fog.3 mph86%29.83 "Hg1 mi
1:01 pm28 °FSnow. Ice fog.8 mph86%29.83 "Hg1 mi
12:39 pm34 °FLight rain. Mostly cloudy.3 mph70%29.82 "Hg1 mi
11:58 am34 °FScattered showers. Overcast.No wind75%29.82 "Hg10 mi
11:28 am32 °FScattered showers. Overcast.No wind80%29.81 "Hg10 mi
11:17 am30 °FLight snow. Ice fog.3 mph86%29.81 "Hg6 mi
10:58 am28 °FLight snow. Ice fog.13 mph93%29.81 "Hg2 mi
10:37 am28 °FLight snow. Ice fog.14 mph93%29.79 "Hg6 mi
9:58 am28 °FLight snow. Broken clouds.18 mph86%29.78 "Hg10 mi
8:58 am28 °FLight snow. Broken clouds.18 mph80%29.76 "Hg10 mi
8:56 am29 °FLight snow. Partly sunny.17 mph79%29.81 "Hg9 mi
7:58 am28 °FLight snow. Broken clouds.21 mph80%29.74 "Hg10 mi
7:56 am28 °FLight snow. Scattered clouds.14 mph81%29.79 "Hg9 mi
6:58 am27 °FLight snow. Overcast.13 mph86%29.73 "Hg10 mi
5:56 am26 °FOvercast.13 mph84%29.78 "Hg10 mi
4:56 am24 °FPassing clouds.7 mph96%29.79 "Hg10 mi
3:56 am26 °FOvercast.3 mph92%29.78 "Hg10 mi
3:35 am27 °FMostly cloudy.3 mph93%29.72 "Hg9 mi
3:18 am28 °FLight snow. Passing clouds.3 mph93%29.72 "Hg9 mi
3:00 am28 °FLight snow. Ice fog.3 mph93%29.72 "Hg5 mi
2:18 am28 °FLight snow. Ice fog.5 mph93%29.73 "Hg1 mi
2:09 am28 °FLight snow. Ice fog.5 mph93%29.73 "Hg2 mi
1:56 am28 °FLight snow. Ice fog.7 mph96%29.77 "Hg3 mi
12:56 am27 °FPassing clouds.5 mph96%29.78 "Hg7 mi
11:56 pm
Wed, Feb 22
27 °FClear.No wind96%29.80 "Hg10 mi
10:56 pm29 °FClear.6 mph93%29.83 "Hg10 mi
9:56 pm30 °FLight snow. Partly cloudy.7 mph96%29.86 "Hg9 mi
9:16 pm30 °FLight snow. Ice fog.6 mph93%29.84 "Hg1 mi
9:09 pm30 °FLight snow. Ice fog.6 mph93%29.84 "Hg1 mi
8:58 pm30 °FLight snow. Ice fog.7 mph93%29.84 "Hg1 mi
8:34 pm30 °FLight snow. Ice fog.No wind93%29.84 "Hg1 mi
8:18 pm30 °FLight snow. Ice fog.3 mph100%29.83 "Hg2 mi
7:58 pm30 °FLight snow. Ice fog.7 mph100%29.83 "Hg2 mi
7:27 pm32 °FLight snow. Ice fog.9 mph93%29.83 "Hg2 mi
7:04 pm32 °FLight snow. Ice fog.8 mph93%29.83 "Hg1 mi
6:58 pm32 °FLight snow. Ice fog.17 mph93%29.83 "Hg1 mi
6:40 pm34 °FLight snow. Fog.17 mph87%29.83 "Hg2 mi
6:32 pm34 °FLight snow. Fog.13 mph93%29.83 "Hg3 mi
6:24 pm34 °FLight snow. Fog.13 mph93%29.83 "Hg5 mi
6:00 pm34 °FLight snow. Fog.3 mph87%29.82 "Hg2 mi
Weather by CustomWeather, © 2017

See weather overviewHow to use our weather pages